FW2782 Weather Reports


time (UTC)temp
C
wind
direction
speed
KPH
gust
KPH
rain 1hr
cm
rain 24hr
cm
rain mn
cm
humidity
%
barometer
mb
20260507104548 22 178 4.8 16.1 0.00 0.00 0.00 51 1012.7
20260507103048 22 98 1.6 14.5 0.00 0.00 0.00 47 1012.9
20260507101550 22 13 0.0 11.3 0.00 0.00 0.00 53 1013.1
20260507100044 21 80 4.8 12.9 0.00 0.00 0.00 52 1013.0
20260507094550 22 85 3.2 11.3 0.00 0.00 0.00 52 1013.0
20260507093039 21 115 3.2 9.7 0.00 0.00 0.00 53 1013.1
20260507091537 20 109 3.2 9.7 0.00 0.00 0.00 56 1013.1
20260507090038 20 360 1.6 9.7 0.00 0.00 0.00 58 1013.2
20260507084534 20 323 3.2 14.5 0.00 0.00 0.00 60 1013.1
20260507083032 20 130 3.2 8.0 0.00 0.00 0.00 67 1013.0
20260507081535 19 129 3.2 8.0 0.00 0.00 0.00 64 1013.1
20260507080024 18 138 1.6 6.4 0.00 0.00 0.00 69 1013.1
20260507074529 17 115 3.2 6.4 0.00 0.00 0.00 67 1013.1
20260507073017 16 54 0.0 4.8 0.00 0.00 0.00 74 1013.3
20260507071513 15 284 3.2 6.4 0.00 0.00 0.00 75 1013.2
20260507070012 15 113 1.6 9.7 0.00 0.00 0.00 82 1013.1
20260507064505 13 132 0.0 4.8 0.00 0.00 0.00 87 1013.1
20260507063002 12 360 0.0 6.4 0.00 0.00 0.00 91 1013.2
20260507061502 10 18 0.0 0.0 0.00 0.00 0.00 95 1013.1
20260507060100 9 17 0.0 0.0 0.00 0.00 0.00 95 1013.0
20260507054559 8 17 0.0 0.0 0.00 0.00 0.00 94 1013.1
20260507053058 8 17 0.0 0.0 0.00 0.00 0.00 93 1012.9
20260507051557 8 17 0.0 0.0 0.00 0.00 0.00 93 1012.8
20260507050059 7 16 0.0 0.0 0.00 0.00 0.00 93 1012.7
20260507044555 8 16 0.0 0.0 0.00 0.00 0.00 93 1012.6
20260507043057 8 30 0.0 0.0 0.00 0.00 0.00 92 1012.6
20260507041558 8 30 0.0 0.0 0.00 0.00 0.00 93 1012.5
20260507034605 8 65 0.0 0.0 0.00 0.03 0.00 91 1012.5
20260507033101 9 68 0.0 0.0 0.00 0.03 0.00 90 1012.6
20260507031543 9 68 0.0 0.0 0.00 0.03 0.00 90 1012.5
20260507030040 10 68 0.0 0.0 0.00 0.03 0.00 90 1012.5
20260507024550 10 69 0.0 0.0 0.00 0.03 0.00 89 1012.6
20260507023039 10 69 0.0 0.0 0.00 0.03 0.00 89 1012.6
20260507021534 10 68 0.0 0.0 0.00 0.03 0.00 90 1012.4
20260507020036 10 68 0.0 0.0 0.00 0.89 0.00 90 1012.6
20260507014533 10 69 0.0 8.0 0.00 0.89 0.00 90 1012.6
20260507013036 10 258 0.0 4.8 0.00 0.89 0.00 89 1012.6
20260507011531 10 355 0.0 1.6 0.00 0.89 0.00 88 1012.6
20260507010036 11 355 0.0 1.6 0.00 1.27 0.00 87 1012.7
20260507004526 11 355 1.6 6.4 0.00 1.27 0.00 88 1012.7
20260507003022 11 335 0.0 3.2 0.00 1.27 0.00 86 1012.8
20260507001520 11 355 0.0 0.0 0.00 1.27 0.00 86 1013.0
20260507000020 11 355 1.6 4.8 0.00 1.27 0.00 85 1013.0
20260506234536 12 5 0.0 6.4 0.00 1.27 0.00 85 1013.1
20260506233019 12 346 4.8 9.7 0.00 1.27 0.00 85 1013.2
20260506231517 11 355 3.2 8.0 0.00 1.27 0.00 85 1013.3
20260506230016 11 344 3.2 6.4 0.00 1.27 0.00 85 1013.3
20260506224524 11 5 1.6 6.4 0.00 1.27 0.00 85 1013.3
20260506223012 11 307 1.6 8.0 0.00 1.27 0.00 84 1013.3
20260506221512 12 355 1.6 6.4 0.00 1.27 0.00 83 1013.2
20260506220017 12 334 0.0 3.2 0.00 1.35 1.27 82 1012.9
20260506214506 12 331 0.0 4.8 0.00 1.35 1.27 82 1012.7
20260506213005 12 333 1.6 4.8 0.00 1.35 1.27 82 1012.7
20260506211508 12 323 1.6 4.8 0.00 1.35 1.27 82 1012.7
20260506210005 12 360 0.0 3.2 0.00 1.37 1.27 82 1012.8
20260506204503 12 360 0.0 3.2 0.00 1.37 1.27 81 1012.8
20260506203002 12 5 0.0 4.8 0.00 1.37 1.27 82 1012.6
20260506201601 13 5 0.0 1.6 0.00 1.37 1.27 81 1012.5
20260506200100 13 5 0.0 3.2 0.00 1.37 1.27 79 1012.1
20260506194600 13 5 0.0 3.2 0.00 1.37 1.27 78 1011.9
20260506193059 14 5 0.0 3.2 0.00 1.37 1.27 75 1011.7
20260506191553 15 5 0.0 4.8 0.00 1.37 1.27 73 1011.4
20260506190051 15 205 0.0 3.2 0.00 1.37 1.27 70 1011.1
20260506184548 16 213 0.0 4.8 0.00 1.37 1.27 69 1010.8
20260506183056 16 22 0.0 9.7 0.00 1.37 1.27 68 1010.6
20260506181559 16 293 0.0 8.0 0.00 1.37 1.27 66 1010.5
20260506180048 17 107 1.6 4.8 0.00 1.37 1.27 65 1010.2
20260506174546 17 102 1.6 9.7 0.00 1.37 1.27 63 1009.9
20260506173116 17 78 1.6 8.0 0.00 1.37 1.27 61 1009.7
20260506171551 18 38 1.6 9.7 0.00 1.37 1.27 59 1009.6
20260506170041 18 153 0.0 8.0 0.00 1.37 1.27 56 1009.4
20260506164538 19 118 1.6 9.7 0.00 1.37 1.27 53 1009.3
20260506163036 20 120 1.6 14.5 0.00 1.37 1.27 51 1009.4
20260506161533 20 101 6.4 12.9 0.00 1.37 1.27 52 1009.3
20260506160039 20 137 3.2 9.7 0.00 1.37 1.27 48 1009.4
20260506154534 20 66 3.2 14.5 0.00 1.37 1.27 48 1009.1
20260506153032 21 88 3.2 8.0 0.00 1.37 1.27 48 1009.2
20260506151532 21 130 3.2 12.9 0.00 1.37 1.27 49 1009.1
20260506150031 21 80 3.2 16.1 0.00 1.37 1.27 46 1009.2
20260506144530 21 94 3.2 11.3 0.00 1.37 1.27 46 1009.2
20260506143034 21 117 3.2 11.3 0.00 1.37 1.27 46 1009.2
20260506141529 21 355 3.2 16.1 0.00 1.37 1.27 45 1009.3
20260506140130 21 120 1.6 17.7 0.00 1.37 1.27 45 1009.4
20260506134527 21 102 6.4 22.5 0.00 1.37 1.27 45 1009.5
20260506133027 21 92 1.6 12.9 0.00 1.37 1.27 49 1009.7
20260506131540 21 36 4.8 22.5 0.00 1.37 1.27 50 1009.7
20260506130034 21 58 3.2 11.3 0.00 1.37 1.27 49 1009.8
20260506124520 21 325 3.2 20.9 0.00 1.37 1.27 49 1009.9
20260506123019 21 105 3.2 16.1 0.00 1.37 1.27 52 1009.9
20260506121516 20 155 3.2 12.9 0.00 1.37 1.27 52 1010.0
20260506120018 19 169 3.2 11.3 0.00 1.37 1.27 56 1010.1
20260506114511 18 347 1.6 8.0 0.00 1.37 1.27 59 1010.2
20260506113009 19 345 3.2 17.7 0.00 1.37 1.27 56 1010.3
20260506111508 19 87 3.2 16.1 0.00 1.37 1.27 55 1010.3